Simultaneous Nadir Overpasses (SNOs) Predictions

Prediction of SNOs between GOES-16 and TERRA Satellite Orbit:

Table of predicted SNOs for the next 14.0 days since TLE Epoch: 6/16/2022
Index Date Time (GOES-16) GOES-16 Lat,Lon TERRA Lat,Lon Distance(km) Time Diff (sec)
1 06/17/2022 15:15:17 0.03, -75.21 -0.26, -73.83 156.33 80
2 06/18/2022 03:36:41 -0.02, -75.19 -0.81, -79.04 436.05 80
3 06/19/2022 15:03:02 0.02, -75.22 -0.88, -70.88 493.50 80
4 06/20/2022 03:24:26 -0.02, -75.21 -0.19, -76.08 98.62 80
5 06/22/2022 03:09:31 -0.02, -75.23 0.45, -73.13 239.96 80
6 06/22/2022 15:30:45 0.02, -75.25 0.68, -78.28 344.08 80
7 06/24/2022 15:18:30 0.02, -75.28 0.03, -75.32 4.63 80
8 06/26/2022 15:08:55 0.02, -75.32 -0.63, -72.37 335.25 80
9 06/27/2022 03:30:17 -0.02, -75.31 -0.48, -77.56 256.02 80
10 06/29/2022 03:15:22 -0.01, -75.35 0.13, -74.60 84.21 80
11 06/29/2022 15:36:36 0.01, -75.37 0.93, -79.77 499.62 80
